Starlink 31206

operational
NORAD ID: 59028 Int'l Des: 2024-038 Owner: SPXS Country: US Constellation: starlink
LEOCIRCULAR

Über Starlink 31206

Beschreibung wird geladen...

Live-Position

3D-Globus wird geladen...

Nächste Überflüge

Höhenverlauf

Altitude vs Time

uPlot chart will show altitude changes over time

Zweizeiliger Elementsatz

1 59028U 24038F 25259.28904793 .00001013 00000-0 46322-4 0 9992
2 59028 43.0017 226.9377 0000862 268.8595 91.2158 15.27589512 88856
Epoch: 16. Sept. 2025 • Age: 40 hours

Aktueller Status

Höhe 490.8 km
Geschwindigkeit 7.62 km/s
Subsatellitenpunkt -30.34°S, 91.55°E
Startdatum 25. Feb. 2024
Alter 1.5 years
Typ internet

Technische Details

Klassifizierung Payload
Masse 730.00 kg
Trockenmasse 700.00 kg
Gesamtmasse 730.00 kg
Länge 0.30 m
Durchmesser 4.10 m
Spannweite 29.00 m
Form Box + pan
Hersteller SPXS
Bus-Typ Starlink V2M
Phasenstatus In Orbit
Besitzer/Staat SPXS/US

Große Konstellationen

Loading constellations...